| time (UTC) | temp F | wind direction | speed knots | gust knots | rain 1hr in | rain 24hr in | rain mn in | humidity % | barometer mb |
| 20260507220430 | 65 | 164 | 0.0 | 2.6 | 0.00 | 0.01 | 0.01 | 61 | |
| 20260507215926 | 65 | 192 | 1.7 | 2.6 | 0.00 | 0.01 | 0.01 | 58 | |
| 20260507215423 | 65 | 170 | 0.0 | 0.9 | 0.00 | 0.01 | 0.01 | 59 | |
| 20260507214920 | 65 | 104 | 0.0 | 1.7 | 0.00 | 0.01 | 0.01 | 61 | |
| 20260507214418 | 64 | 175 | 0.9 | 5.2 | 0.00 | 0.01 | 0.01 | 62 | |
| 20260507213913 | 64 | 79 | 3.5 | 6.1 | 0.00 | 0.01 | 0.01 | 61 | |
| 20260507213410 | 68 | 126 | 0.9 | 0.9 | 0.00 | 0.01 | 0.01 | 51 | |
| 20260507212907 | 67 | 175 | 0.0 | 0.9 | 0.00 | 0.01 | 0.01 | 51 | |
| 20260507212403 | 67 | 159 | 0.9 | 0.9 | 0.00 | 0.01 | 0.01 | 52 | |
| 20260507211900 | 67 | 178 | 0.9 | 0.9 | 0.00 | 0.01 | 0.01 | 51 | |
| 20260507211356 | 66 | 190 | 0.9 | 1.7 | 0.00 | 0.01 | 0.01 | 53 | |
| 20260507210853 | 67 | 224 | 1.7 | 1.7 | 0.00 | 0.01 | 0.01 | 52 | |
| 20260507210350 | 67 | 152 | 0.0 | 1.7 | 0.00 | 0.01 | 0.01 | 51 | |
| 20260507205847 | 67 | 123 | 2.6 | 3.5 | 0.00 | 0.01 | 0.01 | 52 | |
| 20260507205343 | 67 | 221 | 1.7 | 3.5 | 0.00 | 0.01 | 0.01 | 48 | |
| 20260507204840 | 67 | 206 | 1.7 | 2.6 | 0.00 | 0.01 | 0.01 | 50 | |
| 20260507204337 | 68 | 197 | 1.7 | 3.5 | 0.00 | 0.01 | 0.01 | 48 | |
| 20260507203835 | 70 | 163 | 0.0 | 1.7 | 0.00 | 0.01 | 0.01 | 47 | |
| 20260507203333 | 70 | 170 | 0.0 | 1.7 | 0.00 | 0.01 | 0.01 | 46 | |
| 20260507202828 | 69 | 161 | 1.7 | 1.7 | 0.00 | 0.01 | 0.01 | 47 | |
| 20260507202325 | 69 | 167 | 0.9 | 1.7 | 0.00 | 0.01 | 0.01 | 48 | |
| 20260507201820 | 67 | 143 | 0.0 | 0.9 | 0.00 | 0.01 | 0.01 | 51 | |
| 20260507201316 | 66 | 231 | 2.6 | 5.2 | 0.00 | 0.01 | 0.01 | 50 | |
| 20260507200813 | 69 | 194 | 1.7 | 5.2 | 0.00 | 0.01 | 0.01 | 48 | |
| 20260507200309 | 68 | 104 | 0.9 | 3.5 | 0.00 | 0.01 | 0.01 | 48 | |
| 20260507195805 | 65 | 175 | 0.0 | 2.6 | 0.00 | 0.01 | 0.01 | 52 | |
| 20260507195305 | 67 | 260 | 3.5 | 3.5 | 0.00 | 0.01 | 0.01 | 51 | |
| 20260507194800 | 68 | 225 | 0.0 | 2.6 | 0.00 | 0.01 | 0.01 | 49 | |
| 20260507194255 | 70 | 244 | 2.6 | 3.5 | 0.00 | 0.01 | 0.01 | 47 | |
| 20260507193752 | 72 | 162 | 0.0 | 1.7 | 0.00 | 0.01 | 0.01 | 44 | |
| 20260507193249 | 72 | 136 | 0.0 | 0.9 | 0.00 | 0.01 | 0.01 | 41 | |
| 20260507192745 | 73 | 238 | 1.7 | 2.6 | 0.00 | 0.01 | 0.01 | 41 | |
| 20260507192242 | 71 | 137 | 0.0 | 1.7 | 0.00 | 0.01 | 0.01 | 44 | |
| 20260507191738 | 67 | 228 | 0.9 | 2.6 | 0.00 | 0.01 | 0.01 | 47 | |
| 20260507191235 | 68 | 128 | 1.7 | 1.7 | 0.00 | 0.01 | 0.01 | 46 | |
| 20260507190732 | 66 | 161 | 0.0 | 0.9 | 0.00 | 0.01 | 0.01 | 47 | |
| 20260507190231 | 64 | 199 | 0.9 | 2.6 | 0.00 | 0.01 | 0.01 | 50 | |
| 20260507185729 | 65 | 279 | 0.9 | 2.6 | 0.00 | 0.01 | 0.01 | 52 | |
| 20260507185225 | 67 | 163 | 0.9 | 1.7 | 0.00 | 0.01 | 0.01 | 47 | |
| 20260507184723 | 66 | 95 | 4.3 | 7.0 | 0.00 | 0.01 | 0.01 | 48 | |
| 20260507184221 | 69 | 108 | 1.7 | 1.7 | 0.00 | 0.01 | 0.01 | 46 | |
| 20260507183717 | 67 | 180 | 0.9 | 2.6 | 0.00 | 0.01 | 0.01 | 46 | |
| 20260507183214 | 66 | 45 | 4.3 | 7.8 | 0.00 | 0.01 | 0.01 | 47 | |
| 20260507182711 | 68 | 146 | 0.9 | 3.5 | 0.00 | 0.01 | 0.01 | 46 | |
| 20260507182206 | 67 | 111 | 1.7 | 2.6 | 0.00 | 0.01 | 0.01 | 46 | |
| 20260507181703 | 66 | 84 | 6.1 | 7.0 | 0.00 | 0.01 | 0.01 | 48 | |
| 20260507181200 | 68 | 194 | 2.6 | 6.1 | 0.00 | 0.01 | 0.01 | 47 | |
| 20260507180656 | 69 | 120 | 0.9 | 1.7 | 0.00 | 0.01 | 0.01 | 46 | |
| 20260507180153 | 68 | 169 | 0.0 | 2.6 | 0.00 | 0.01 | 0.01 | 48 | |
| 20260507175649 | 68 | 251 | 0.0 | 1.7 | 0.00 | 0.01 | 0.01 | 48 | |
| 20260507175146 | 66 | 170 | 0.9 | 1.7 | 0.00 | 0.01 | 0.01 | 47 | |
| 20260507174643 | 63 | 165 | 0.0 | 1.7 | 0.00 | 0.01 | 0.01 | 47 | |
| 20260507174142 | 63 | 96 | 1.7 | 7.8 | 0.00 | 0.01 | 0.01 | 50 | |
| 20260507173638 | 63 | 75 | 2.6 | 6.1 | 0.00 | 0.01 | 0.01 | 51 | |
| 20260507173135 | 62 | 99 | 2.6 | 3.5 | 0.00 | 0.01 | 0.01 | 50 | |
| 20260507172631 | 62 | 86 | 3.5 | 7.8 | 0.00 | 0.01 | 0.01 | 51 | |
| 20260507172129 | 63 | 89 | 3.5 | 5.2 | 0.00 | 0.01 | 0.01 | 50 | |
| 20260507171624 | 64 | 84 | 5.2 | 7.8 | 0.00 | 0.01 | 0.01 | 48 | |
| 20260507171121 | 70 | 109 | 1.7 | 2.6 | 0.00 | 0.01 | 0.01 | 41 | |
| 20260507170618 | 67 | 185 | 0.0 | 2.6 | 0.00 | 0.01 | 0.01 | 47 | |
| 20260507170115 | 63 | 98 | 0.9 | 1.7 | 0.00 | 0.01 | 0.01 | 47 | |
| 20260507165611 | 64 | 53 | 2.6 | 7.8 | 0.00 | 0.01 | 0.01 | 51 | |
| 20260507165107 | 65 | 103 | 3.5 | 8.7 | 0.00 | 0.01 | 0.01 | 52 | |
| 20260507164603 | 62 | 145 | 0.9 | 5.2 | 0.00 | 0.01 | 0.01 | 49 | |
| 20260507164100 | 64 | 31 | 3.5 | 7.8 | 0.00 | 0.01 | 0.01 | 48 | |
| 20260507163558 | 62 | 90 | 5.2 | 7.8 | 0.00 | 0.01 | 0.01 | 49 | |
| 20260507163056 | 61 | 160 | 0.0 | 2.6 | 0.00 | 0.01 | 0.01 | 49 | |
| 20260507162555 | 63 | 89 | 1.7 | 7.0 | 0.00 | 0.01 | 0.01 | 54 | |
| 20260507162053 | 63 | 130 | 3.5 | 6.1 | 0.00 | 0.01 | 0.01 | 51 | |
| 20260507161549 | 62 | 165 | 0.0 | 0.9 | 0.00 | 0.01 | 0.01 | 52 | |
| 20260507161046 | 60 | 109 | 1.7 | 5.2 | 0.00 | 0.01 | 0.01 | 54 | |
| 20260507160542 | 60 | 53 | 1.7 | 3.5 | 0.00 | 0.01 | 0.01 | 53 | |
| 20260507160038 | 60 | 179 | 1.7 | 6.1 | 0.00 | 0.01 | 0.01 | 53 | |
| 20260507155534 | 60 | 69 | 2.6 | 3.5 | 0.00 | 0.01 | 0.01 | 52 | |
| 20260507155031 | 62 | 66 | 6.1 | 7.0 | 0.00 | 0.01 | 0.01 | 50 | |
| 20260507154528 | 61 | 175 | 2.6 | 3.5 | 0.00 | 0.01 | 0.01 | 50 | |
| 20260507154025 | 60 | 59 | 2.6 | 3.5 | 0.00 | 0.01 | 0.01 | 53 | |
| 20260507153522 | 60 | 70 | 0.9 | 1.7 | 0.00 | 0.01 | 0.01 | 51 | |
| 20260507153018 | 59 | 255 | 3.5 | 5.2 | 0.00 | 0.01 | 0.01 | 58 | |
| 20260507152514 | 59 | 92 | 0.0 | 2.6 | 0.00 | 0.01 | 0.01 | 56 | |
| 20260507152010 | 57 | 89 | 5.2 | 9.6 | 0.00 | 0.01 | 0.01 | 57 | |
| 20260507151507 | 58 | 69 | 2.6 | 9.6 | 0.00 | 0.01 | 0.01 | 60 | |
| 20260507151004 | 58 | 59 | 1.7 | 3.5 | 0.00 | 0.01 | 0.01 | 56 | |
| 20260507150500 | 57 | 74 | 5.2 | 8.7 | 0.00 | 0.01 | 0.01 | 59 | |
| 20260507145956 | 57 | 83 | 0.9 | 5.2 | 0.00 | 0.01 | 0.01 | 59 | |
| 20260507145452 | 56 | 49 | 1.7 | 3.5 | 0.00 | 0.01 | 0.01 | 59 | |
| 20260507144950 | 56 | 79 | 4.3 | 6.1 | 0.00 | 0.01 | 0.01 | 64 | |
| 20260507144446 | 56 | 92 | 3.5 | 3.5 | 0.00 | 0.01 | 0.01 | 63 | |
| 20260507143943 | 56 | 91 | 4.3 | 5.2 | 0.00 | 0.01 | 0.01 | 62 | |
| 20260507143441 | 55 | 65 | 0.0 | 5.2 | 0.00 | 0.01 | 0.01 | 65 | |
| 20260507142937 | 55 | 97 | 3.5 | 6.1 | 0.00 | 0.01 | 0.01 | 65 | |
| 20260507142433 | 55 | 79 | 0.9 | 3.5 | 0.00 | 0.01 | 0.01 | 66 | |
| 20260507141931 | 55 | 148 | 1.7 | 6.1 | 0.00 | 0.01 | 0.01 | 68 | |
| 20260507141426 | 54 | 72 | 1.7 | 2.6 | 0.00 | 0.01 | 0.01 | 68 | |
| 20260507140923 | 54 | 85 | 1.7 | 3.5 | 0.00 | 0.01 | 0.01 | 70 | |
| 20260507140420 | 54 | 146 | 0.9 | 3.5 | 0.00 | 0.01 | 0.01 | 73 | |
| 20260507135918 | 53 | 52 | 1.7 | 2.6 | 0.00 | 0.01 | 0.01 | 71 | |
| 20260507135414 | 53 | 109 | 0.9 | 2.6 | 0.00 | 0.01 | 0.01 | 72 | |
| 20260507134912 | 53 | 66 | 0.9 | 5.2 | 0.00 | 0.01 | 0.01 | 72 | |
| 20260507134408 | 53 | 141 | 0.9 | 1.7 | 0.00 | 0.01 | 0.01 | 71 | |
| 20260507133904 | 53 | 72 | 0.9 | 1.7 | 0.00 | 0.01 | 0.01 | 72 | |
| 20260507133400 | 53 | 144 | 0.0 | 2.6 | 0.00 | 0.01 | 0.01 | 72 | |
| 20260507132859 | 53 | 93 | 0.9 | 1.7 | 0.00 | 0.01 | 0.01 | 74 | |
| 20260507132355 | 53 | 40 | 1.7 | 3.5 | 0.00 | 0.01 | 0.01 | 72 | |
| 20260507131852 | 53 | 94 | 0.9 | 3.5 | 0.00 | 0.01 | 0.01 | 73 | |
| 20260507131348 | 53 | 74 | 0.9 | 3.5 | 0.00 | 0.01 | 0.01 | 74 | |
| 20260507130845 | 53 | 117 | 1.7 | 2.6 | 0.00 | 0.01 | 0.01 | 74 | |
| 20260507130342 | 53 | 74 | 1.7 | 2.6 | 0.00 | 0.01 | 0.01 | 74 | |
| 20260507125842 | 53 | 124 | 0.0 | 1.7 | 0.00 | 0.01 | 0.01 | 75 | |
| 20260507125338 | 53 | 12 | 3.5 | 5.2 | 0.00 | 0.01 | 0.01 | 75 | |
| 20260507124836 | 53 | 65 | 1.7 | 2.6 | 0.00 | 0.01 | 0.01 | 75 | |
| 20260507124332 | 53 | 60 | 1.7 | 5.2 | 0.00 | 0.01 | 0.01 | 75 | |
| 20260507123831 | 53 | 54 | 2.6 | 6.1 | 0.00 | 0.01 | 0.01 | 76 | |
| 20260507123327 | 53 | 55 | 2.6 | 5.2 | 0.00 | 0.01 | 0.01 | 77 | |
| 20260507122823 | 54 | 54 | 0.9 | 2.6 | 0.00 | 0.01 | 0.01 | 77 | |
| 20260507122319 | 54 | 11 | 3.5 | 5.2 | 0.00 | 0.01 | 0.01 | 79 | |
| 20260507121815 | 54 | 100 | 0.9 | 3.5 | 0.00 | 0.01 | 0.01 | 81 | |
| 20260507121311 | 54 | 68 | 0.9 | 1.7 | 0.00 | 0.01 | 0.01 | 83 | |
| 20260507120808 | 54 | 171 | 0.9 | 2.6 | 0.00 | 0.01 | 0.01 | 83 | |
| 20260507120304 | 54 | 354 | 1.7 | 2.6 | 0.00 | 0.01 | 0.01 | 86 | |
| 20260507115801 | 54 | 153 | 1.7 | 2.6 | 0.00 | 0.01 | 0.01 | 85 | |
| 20260507115256 | 53 | 90 | 0.0 | 1.7 | 0.00 | 0.01 | 0.01 | 85 | |
| 20260507114752 | 54 | 97 | 0.0 | 1.7 | 0.00 | 0.01 | 0.01 | 86 | |
| 20260507114250 | 53 | 171 | 0.9 | 0.9 | 0.00 | 0.01 | 0.01 | 86 | |
| 20260507113747 | 53 | 148 | 0.0 | 1.7 | 0.00 | 0.01 | 0.01 | 86 | |
| 20260507113244 | 54 | 37 | 1.7 | 2.6 | 0.00 | 0.01 | 0.01 | 86 | |
| 20260507112742 | 53 | 158 | 0.0 | 1.7 | 0.00 | 0.01 | 0.01 | 86 | |
| 20260507112238 | 53 | 132 | 0.9 | 1.7 | 0.00 | 0.01 | 0.01 | 87 | |
| 20260507111736 | 53 | 120 | 0.9 | 1.7 | 0.00 | 0.01 | 0.01 | 87 | |
| 20260507111232 | 53 | 136 | 0.0 | 0.0 | 0.00 | 0.01 | 0.01 | 88 | |
| 20260507110728 | 53 | 165 | 0.0 | 0.9 | 0.00 | 0.01 | 0.01 | 88 | |
| 20260507110225 | 53 | 164 | 0.0 | 1.7 | 0.00 | 0.01 | 0.01 | 87 | |
| 20260507105722 | 53 | 100 | 1.7 | 1.7 | 0.00 | 0.01 | 0.01 | 87 | |
| 20260507105218 | 53 | 217 | 1.7 | 1.7 | 0.00 | 0.01 | 0.01 | 88 | |
| 20260507104716 | 53 | 165 | 0.0 | 1.7 | 0.00 | 0.01 | 0.01 | 88 | |
| 20260507104212 | 53 | 120 | 0.9 | 1.7 | 0.00 | 0.01 | 0.01 | 88 | |
| 20260507103708 | 53 | 168 | 0.0 | 0.0 | 0.00 | 0.01 | 0.01 | 89 | |
| 20260507103204 | 53 | 186 | 0.0 | 0.0 | 0.00 | 0.01 | 0.01 | 89 | |
| 20260507102701 | 53 | 168 | 0.0 | 0.0 | 0.00 | 0.01 | 0.01 | 89 | |
| 20260507102158 | 53 | 203 | 0.9 | 0.9 | 0.00 | 0.01 | 0.01 | 91 | |
| 20260507101653 | 53 | 142 | 0.0 | 0.0 | 0.00 | 0.01 | 0.01 | 90 | |
| 20260507101149 | 53 | 148 | 0.0 | 0.0 | 0.00 | 0.01 | 0.01 | 89 | |
| 20260507100647 | 53 | 169 | 0.0 | 1.7 | 0.00 | 0.01 | 0.01 | 90 | |
| 20260507100145 | 53 | 130 | 0.0 | 0.9 | 0.00 | 0.01 | 0.01 | 90 | |
| 20260507095643 | 53 | 155 | 0.0 | 0.0 | 0.00 | 0.01 | 0.01 | 89 | |
| 20260507095139 | 53 | 181 | 0.9 | 0.9 | 0.00 | 0.01 | 0.01 | 89 | |
| 20260507094635 | 53 | 194 | 0.9 | 2.6 | 0.00 | 0.01 | 0.01 | 88 | |
| 20260507094132 | 53 | 188 | 0.9 | 0.9 | 0.00 | 0.01 | 0.01 | 89 | |
| 20260507093629 | 53 | 150 | 0.0 | 0.0 | 0.00 | 0.01 | 0.01 | 90 | |
| 20260507093128 | 53 | 151 | 0.0 | 0.0 | 0.00 | 0.01 | 0.01 | 91 | |
| 20260507092624 | 53 | 171 | 0.0 | 0.0 | 0.00 | 0.01 | 0.01 | 91 | |
| 20260507092121 | 53 | 126 | 0.0 | 0.0 | 0.00 | 0.01 | 0.01 | 91 | |
| 20260507091618 | 53 | 159 | 0.0 | 0.0 | 0.00 | 0.01 | 0.01 | 92 | |
| 20260507091114 | 53 | 157 | 0.0 | 0.0 | 0.00 | 0.01 | 0.01 | 92 | |
| 20260507090610 | 53 | 163 | 0.0 | 0.0 | 0.00 | 0.01 | 0.01 | 93 | |
| 20260507090107 | 53 | 164 | 0.0 | 0.9 | 0.00 | 0.01 | 0.01 | 93 | |
| 20260507085604 | 53 | 180 | 0.9 | 0.9 | 0.00 | 0.01 | 0.01 | 93 | |
| 20260507085100 | 53 | 212 | 0.9 | 1.7 | 0.00 | 0.01 | 0.01 | 94 | |
| 20260507084557 | 53 | 167 | 0.0 | 0.0 | 0.00 | 0.01 | 0.01 | 94 | |
| 20260507084054 | 53 | 157 | 0.0 | 0.0 | 0.00 | 0.01 | 0.01 | 93 | |
| 20260507083550 | 53 | 157 | 0.0 | 0.0 | 0.00 | 0.01 | 0.01 | 92 | |
| 20260507083048 | 53 | 157 | 0.0 | 0.0 | 0.00 | 0.01 | 0.01 | 91 | |
| 20260507082544 | 53 | 157 | 0.0 | 0.0 | 0.00 | 0.01 | 0.01 | 90 | |
| 20260507082041 | 53 | 175 | 0.0 | 0.9 | 0.00 | 0.01 | 0.01 | 90 | |
| 20260507081536 | 53 | 169 | 0.0 | 0.0 | 0.00 | 0.01 | 0.01 | 89 | |
| 20260507081034 | 54 | 215 | 0.9 | 1.7 | 0.00 | 0.01 | 0.01 | 91 | |
| 20260507080529 | 53 | 175 | 0.0 | 0.0 | 0.00 | 0.01 | 0.01 | 88 | |
| 20260507080026 | 54 | 158 | 0.0 | 0.0 | 0.00 | 0.01 | 0.01 | 88 | |
| 20260507075521 | 53 | 127 | 0.9 | 0.9 | 0.00 | 0.01 | 0.01 | 87 | |
| 20260507075018 | 53 | 160 | 0.0 | 0.0 | 0.00 | 0.01 | 0.01 | 88 | |
| 20260507074514 | 54 | 172 | 0.0 | 0.9 | 0.00 | 0.01 | 0.01 | 87 | |
| 20260507074013 | 54 | 148 | 0.0 | 0.9 | 0.00 | 0.01 | 0.01 | 87 | |
| 20260507073509 | 54 | 170 | 0.9 | 0.9 | 0.00 | 0.01 | 0.01 | 88 | |
| 20260507073006 | 54 | 134 | 0.9 | 0.9 | 0.00 | 0.01 | 0.01 | 87 | |
| 20260507072503 | 54 | 142 | 0.0 | 0.9 | 0.00 | 0.01 | 0.01 | 87 | |
| 20260507072000 | 54 | 99 | 2.6 | 2.6 | 0.00 | 0.01 | 0.01 | 87 | |
| 20260507071457 | 54 | 106 | 0.9 | 1.7 | 0.00 | 0.01 | 0.01 | 87 | |
| 20260507070954 | 54 | 79 | 0.0 | 1.7 | 0.00 | 0.01 | 0.01 | 87 | |
| 20260507070451 | 54 | 212 | 1.7 | 1.7 | 0.00 | 0.01 | 0.01 | 88 | |
| 20260507065948 | 54 | 72 | 0.9 | 3.5 | 0.00 | 0.01 | 0.01 | 88 | |
| 20260507065444 | 54 | 95 | 0.9 | 5.2 | 0.00 | 0.01 | 0.01 | 89 | |
| 20260507064942 | 53 | 84 | 0.9 | 2.6 | 0.00 | 0.01 | 0.01 | 90 | |
| 20260507064440 | 53 | 318 | 1.7 | 2.6 | 0.00 | 0.01 | 0.01 | 92 | |
| 20260507063937 | 53 | 244 | 3.5 | 3.5 | 0.00 | 0.01 | 0.01 | 92 | |
| 20260507063434 | 54 | 61 | 1.7 | 3.5 | 0.00 | 0.01 | 0.01 | 92 | |
| 20260507062931 | 54 | 133 | 0.9 | 1.7 | 0.00 | 0.01 | 0.01 | 92 | |
| 20260507062429 | 54 | 34 | 1.7 | 3.5 | 0.00 | 0.01 | 0.01 | 92 | |
| 20260507061926 | 54 | 37 | 1.7 | 2.6 | 0.00 | 0.01 | 0.01 | 93 | |
| 20260507061424 | 54 | 106 | 0.9 | 3.5 | 0.00 | 0.01 | 0.01 | 92 | |
| 20260507060922 | 54 | 65 | 1.7 | 2.6 | 0.00 | 0.01 | 0.01 | 92 | |
| 20260507060418 | 55 | 77 | 0.0 | 0.9 | 0.00 | 0.01 | 0.01 | 93 | |
| 20260507055915 | 55 | 211 | 2.6 | 5.2 | 0.07 | 0.01 | 0.01 | 91 | |
| 20260507055410 | 55 | 188 | 2.6 | 3.5 | 0.07 | 0.01 | 0.01 | 90 | |
| 20260507054907 | 56 | 136 | 1.7 | 3.5 | 0.00 | 0.00 | 0.00 | 89 | |
| 20260507054403 | 56 | 154 | 0.9 | 2.6 | 0.00 | 0.00 | 0.00 | 88 | |
| 20260507053901 | 56 | 72 | 0.9 | 6.1 | 0.00 | 0.00 | 0.00 | 88 | |
| 20260507053358 | 56 | 58 | 5.2 | 6.1 | 0.00 | 0.00 | 0.00 | 88 | |
| 20260507052857 | 56 | 139 | 0.9 | 2.6 | 0.00 | 0.00 | 0.00 | 89 | |
| 20260507052354 | 56 | 159 | 0.0 | 1.7 | 0.00 | 0.00 | 0.00 | 88 | |
| 20260507051851 | 56 | 85 | 2.6 | 3.5 | 0.00 | 0.00 | 0.00 | 89 | |
| 20260507051349 | 56 | 99 | 1.7 | 3.5 | 0.00 | 0.00 | 0.00 | 89 | |
| 20260507050845 | 56 | 72 | 0.9 | 6.1 | 0.00 | 0.00 | 0.00 | 90 | |
| 20260507050342 | 57 | 60 | 0.9 | 1.7 | 0.00 | 0.00 | 0.00 | 90 | |
| 20260507045839 | 57 | 65 | 2.6 | 5.2 | 0.00 | 0.00 | 0.00 | 90 | |
| 20260507045335 | 57 | 82 | 2.6 | 6.1 | 0.00 | 0.00 | 0.00 | 89 | |
| 20260507044832 | 57 | 46 | 1.7 | 5.2 | 0.00 | 0.00 | 0.00 | 91 | |
| 20260507044329 | 57 | 216 | 4.3 | 6.1 | 0.00 | 0.00 | 0.00 | 91 | |
| 20260507043825 | 57 | 175 | 4.3 | 7.0 | 0.00 | 0.00 | 0.00 | 93 | |
| 20260507043321 | 57 | 69 | 2.6 | 3.5 | 0.00 | 0.00 | 0.00 | 93 | |
| 20260507042818 | 56 | 265 | 1.7 | 2.6 | 0.00 | 0.00 | 0.00 | 94 | |
| 20260507042314 | 56 | 101 | 0.0 | 0.9 | 0.00 | 0.00 | 0.00 | 95 | |
| 20260507041811 | 57 | 156 | 0.0 | 0.0 | 0.00 | 0.00 | 0.00 | 94 | |
| 20260507041307 | 57 | 241 | 1.7 | 2.6 | 0.00 | 0.00 | 0.00 | 94 | |
| 20260507040805 | 57 | 137 | 1.7 | 3.5 | 0.00 | 0.00 | 0.00 | 94 | |
| 20260507040300 | 57 | 57 | 1.7 | 1.7 | 0.00 | 0.00 | 0.00 | 94 | |
| 20260507035756 | 57 | 107 | 0.9 | 3.5 | 0.00 | 0.19 | 0.19 | 92 | |
| 20260507035252 | 58 | 94 | 5.2 | 8.7 | 0.07 | 0.19 | 0.19 | 91 | |
| 20260507034750 | 58 | 93 | 4.3 | 6.1 | 0.07 | 0.19 | 0.19 | 90 | |
| 20260507034246 | 58 | 53 | 2.6 | 5.2 | 0.00 | 0.18 | 0.18 | 90 | |
| 20260507033745 | 58 | 81 | 2.6 | 2.6 | 0.00 | 0.18 | 0.18 | 91 | |
| 20260507033242 | 58 | 198 | 1.7 | 2.6 | 0.00 | 0.18 | 0.18 | 91 | |
| 20260507032739 | 58 | 202 | 1.7 | 1.7 | 0.00 | 0.18 | 0.18 | 91 | |
| 20260507032235 | 59 | 221 | 0.9 | 1.7 | 0.00 | 0.18 | 0.18 | 91 | |
| 20260507031732 | 59 | 77 | 1.7 | 2.6 | 0.00 | 0.18 | 0.18 | 90 | |
| 20260507031229 | 59 | 51 | 2.6 | 7.8 | 0.00 | 0.18 | 0.18 | 90 | |
| 20260507030725 | 59 | 111 | 0.9 | 1.7 | 0.00 | 0.18 | 0.18 | 89 | |
| 20260507030223 | 60 | 70 | 2.6 | 3.5 | 0.00 | 0.18 | 0.18 | 88 | |
| 20260507025720 | 60 | 63 | 2.6 | 6.1 | 0.00 | 0.18 | 0.18 | 88 | |
| 20260507025217 | 60 | 30 | 3.5 | 3.5 | 0.00 | 0.18 | 0.18 | 92 | |
| 20260507024715 | 60 | 321 | 1.7 | 2.6 | 0.00 | 0.18 | 0.18 | 93 | |
| 20260507024212 | 60 | 250 | 1.7 | 3.5 | 0.00 | 0.18 | 0.18 | 92 | |
| 20260507023707 | 60 | 69 | 0.9 | 1.7 | 0.00 | 0.18 | 0.18 | 93 | |
| 20260507023205 | 60 | 131 | 2.6 | 5.2 | 0.00 | 0.18 | 0.18 | 92 | |
| 20260507022702 | 60 | 162 | 0.9 | 1.7 | 0.00 | 0.18 | 0.18 | 93 | |
| 20260507022158 | 60 | 204 | 0.9 | 2.6 | 0.00 | 0.18 | 0.18 | 93 | |
| 20260507021654 | 61 | 149 | 0.9 | 3.5 | 0.00 | 0.18 | 0.18 | 92 | |
| 20260507021149 | 61 | 129 | 0.9 | 3.5 | 0.05 | 0.18 | 0.18 | 91 | |
| 20260507020648 | 62 | 287 | 1.7 | 2.6 | 0.07 | 0.17 | 0.17 | 90 | |
| 20260507020144 | 63 | 110 | 0.9 | 1.7 | 0.07 | 0.17 | 0.17 | 89 | |
| 20260507015642 | 63 | 199 | 1.7 | 3.5 | 0.00 | 0.16 | 0.16 | 86 | |
| 20260507015139 | 63 | 49 | 3.5 | 7.0 | 0.00 | 0.16 | 0.16 | 87 | |
| 20260507014636 | 63 | 61 | 0.9 | 3.5 | 0.00 | 0.16 | 0.16 | 87 | |
| 20260507014132 | 63 | 255 | 2.6 | 3.5 | 0.00 | 0.16 | 0.16 | 88 | |
| 20260507013629 | 63 | 295 | 1.7 | 5.2 | 0.00 | 0.16 | 0.16 | 88 | |
| 20260507013126 | 63 | 198 | 2.6 | 3.5 | 0.00 | 0.16 | 0.16 | 88 | |
| 20260507012623 | 63 | 62 | 2.6 | 6.1 | 0.00 | 0.16 | 0.16 | 89 | |
| 20260507012118 | 63 | 139 | 1.7 | 1.7 | 0.00 | 0.16 | 0.16 | 89 | |
| 20260507011617 | 64 | 218 | 2.6 | 3.5 | 0.00 | 0.16 | 0.16 | 89 | |
| 20260507011113 | 64 | 135 | 1.7 | 1.7 | 0.00 | 0.16 | 0.16 | 90 | |
| 20260507010608 | 64 | 48 | 0.9 | 3.5 | 0.00 | 0.16 | 0.16 | 90 | |
| 20260507010104 | 64 | 133 | 0.9 | 1.7 | 0.00 | 0.16 | 0.16 | 90 | |
| 20260507005602 | 64 | 16 | 3.5 | 5.2 | 0.00 | 0.16 | 0.16 | 90 | |
| 20260507005057 | 65 | 104 | 3.5 | 6.1 | 0.00 | 0.16 | 0.16 | 91 | |
| 20260507004554 | 65 | 66 | 1.7 | 3.5 | 0.00 | 0.16 | 0.16 | 91 | |
| 20260507004052 | 65 | 83 | 2.6 | 5.2 | 0.00 | 0.16 | 0.16 | 90 | |
| 20260507003548 | 65 | 91 | 0.9 | 3.5 | 0.00 | 0.16 | 0.16 | 91 | |
| 20260507003043 | 65 | 99 | 0.0 | 2.6 | 0.00 | 0.16 | 0.16 | 91 | |
| 20260507002540 | 65 | 203 | 0.9 | 1.7 | 0.00 | 0.16 | 0.16 | 92 | |
| 20260507002036 | 66 | 160 | 0.0 | 1.7 | 0.00 | 0.16 | 0.16 | 92 | |
| 20260507001532 | 66 | 120 | 0.9 | 1.7 | 0.00 | 0.16 | 0.16 | 91 | |
| 20260507001030 | 66 | 79 | 0.0 | 2.6 | 0.00 | 0.16 | 0.16 | 91 | |
| 20260507000526 | 66 | 172 | 1.7 | 7.0 | 0.00 | 0.16 | 0.16 | 92 | |
| 20260507000023 | 66 | 144 | 1.7 | 2.6 | 0.00 | 0.16 | 0.16 | 92 | |
| 20260506235519 | 66 | 192 | 0.9 | 3.5 | 0.00 | 0.16 | 0.16 | 91 | |
| 20260506235015 | 66 | 353 | 1.7 | 2.6 | 0.00 | 0.16 | 0.16 | 91 | |
| 20260506234513 | 67 | 148 | 0.0 | 3.5 | 0.00 | 0.16 | 0.16 | 90 | |
| 20260506234010 | 67 | 86 | 0.0 | 1.7 | 0.00 | 0.16 | 0.16 | 90 | |
| 20260506233506 | 68 | 77 | 0.9 | 5.2 | 0.00 | 0.16 | 0.16 | 89 | |
| 20260506233003 | 68 | 55 | 0.9 | 6.1 | 0.00 | 0.16 | 0.16 | 89 | |
| 20260506232459 | 67 | 68 | 1.7 | 5.2 | 0.00 | 0.16 | 0.16 | 96 | |
| 20260506231955 | 68 | 210 | 1.7 | 2.6 | 0.00 | 0.16 | 0.16 | 97 | |
| 20260506231452 | 68 | 178 | 0.0 | 0.0 | 0.00 | 0.16 | 0.16 | 97 | |
| 20260506230950 | 68 | 191 | 0.0 | 0.0 | 0.00 | 0.16 | 0.16 | 97 | |
| 20260506230446 | 68 | 192 | 0.9 | 1.7 | 0.00 | 0.16 | 0.16 | 96 | |
| 20260506225942 | 68 | 175 | 0.0 | 0.0 | 0.00 | 0.16 | 0.16 | 95 | |
| 20260506225440 | 68 | 175 | 0.0 | 0.0 | 0.00 | 0.16 | 0.16 | 94 | |
| 20260506224937 | 68 | 171 | 0.0 | 0.0 | 0.00 | 0.16 | 0.16 | 94 | |
| 20260506224434 | 69 | 171 | 0.0 | 0.0 | 0.00 | 0.16 | 0.16 | 94 | |
| 20260506223930 | 69 | 136 | 0.9 | 1.7 | 0.00 | 0.16 | 0.16 | 94 | |
| 20260506223426 | 68 | 157 | 0.9 | 1.7 | 0.00 | 0.16 | 0.16 | 92 | |
| 20260506222924 | 68 | 167 | 1.7 | 1.7 | 0.00 | 0.16 | 0.16 | 94 | |
| 20260506222420 | 69 | 183 | 0.9 | 0.9 | 0.00 | 0.16 | 0.16 | 94 | |
| 20260506221917 | 69 | 185 | 0.0 | 1.7 | 0.00 | 0.16 | 0.16 | 94 | |
| 20260506221414 | 70 | 178 | 0.0 | 0.9 | 0.00 | 0.16 | 0.16 | 91 | |
| 20260506220912 | 70 | 178 | 0.0 | 0.9 | 0.00 | 0.16 | 0.16 | 92 |